Time,TemperatureF,DewpointF,PressureIn,WindDirection,WindDirectionDegrees,WindSpeedMPH,WindSpeedGustMPH,Humidity,HourlyPrecipIn,Conditions,Clouds,dailyrainin,SoftwareType,DateUTC
2013-04-14 00:00:00,51.8,43.1,30.00,WSW,250,0.0,0.0,72,0.00,,,0.00,Wunderground v.1.15,2013-04-14 04:00:00,
2013-04-14 00:05:00,51.6,43.2,30.00,WSW,250,0.0,0.0,73,0.00,,,0.00,Wunderground v.1.15,2013-04-14 04:05:00,
2013-04-14 00:10:00,51.4,44.4,30.00,WSW,250,0.0,0.0,77,0.00,,,0.00,Wunderground v.1.15,2013-04-14 04:10:00,
2013-04-14 00:20:00,51.2,42.8,30.00,WSW,250,0.0,0.0,73,0.00,,,0.00,Wunderground v.1.15,2013-04-14 04:20:00,
2013-04-14 00:25:00,51.0,41.9,30.00,WSW,250,0.0,0.0,71,0.00,,,0.00,Wunderground v.1.15,2013-04-14 04:25:00,
2013-04-14 00:30:00,51.0,42.6,30.00,WSW,250,0.0,0.0,73,0.00,,,0.00,Wunderground v.1.15,2013-04-14 04:30:00,
2013-04-14 00:40:00,50.7,42.4,30.00,WSW,250,0.0,0.0,73,0.00,,,0.00,Wunderground v.1.15,2013-04-14 04:40:00,
2013-04-14 00:45:00,50.6,42.6,30.01,WSW,250,0.0,0.0,74,0.00,,,0.00,Wunderground v.1.15,2013-04-14 04:45:00,
2013-04-14 00:50:00,50.5,42.9,30.01,WSW,250,0.0,0.0,75,0.00,,,0.00,Wunderground v.1.15,2013-04-14 04:50:00,
2013-04-14 00:55:00,50.4,42.8,30.00,WSW,250,0.0,0.0,75,0.00,,,0.00,Wunderground v.1.15,2013-04-14 04:55:00,
2013-04-14 01:05:00,50.2,42.2,30.00,WSW,250,0.0,0.0,74,0.00,,,0.00,Wunderground v.1.15,2013-04-14 05:05:00,
2013-04-14 01:10:00,50.1,42.8,30.01,WSW,250,0.0,0.0,76,0.00,,,0.00,Wunderground v.1.15,2013-04-14 05:10:00,
2013-04-14 01:20:00,49.9,42.3,30.01,WSW,250,0.0,0.0,75,0.00,,,0.00,Wunderground v.1.15,2013-04-14 05:20:00,
2013-04-14 01:25:00,49.8,42.2,30.01,WSW,250,0.0,0.0,75,0.00,,,0.00,Wunderground v.1.15,2013-04-14 05:25:00,
2013-04-14 01:30:00,49.7,42.8,30.01,WSW,250,0.0,0.0,77,0.00,,,0.00,Wunderground v.1.15,2013-04-14 05:30:00,
2013-04-14 01:35:00,49.5,42.6,30.02,WSW,250,0.0,0.0,77,0.00,,,0.00,Wunderground v.1.15,2013-04-14 05:35:00,
2013-04-14 01:45:00,49.3,42.7,30.02,WSW,250,0.0,0.0,78,0.00,,,0.00,Wunderground v.1.15,2013-04-14 05:45:00,
2013-04-14 01:50:00,49.1,42.5,30.01,WSW,250,0.0,0.0,78,0.00,,,0.00,Wunderground v.1.15,2013-04-14 05:50:00,
2013-04-14 01:55:00,49.0,42.4,30.01,WSW,250,0.0,0.0,78,0.00,,,0.00,Wunderground v.1.15,2013-04-14 05:55:00,
2013-04-14 02:00:00,48.8,42.6,30.02,WSW,250,0.0,0.0,79,0.00,,,0.00,Wunderground v.1.15,2013-04-14 06:00:00,
2013-04-14 02:10:00,48.5,42.9,30.01,WSW,250,0.0,0.0,81,0.00,,,0.00,Wunderground v.1.15,2013-04-14 06:10:00,
2013-04-14 02:15:00,48.3,43.1,30.01,WSW,250,0.0,0.0,82,0.00,,,0.00,Wunderground v.1.15,2013-04-14 06:15:00,
2013-04-14 02:20:00,48.0,42.8,30.01,WSW,250,0.0,0.0,82,0.00,,,0.00,Wunderground v.1.15,2013-04-14 06:20:00,
2013-04-14 02:30:00,47.6,43.0,30.01,WSW,250,0.0,0.0,84,0.00,,,0.00,Wunderground v.1.15,2013-04-14 06:30:00,
2013-04-14 02:35:00,47.4,42.8,30.01,WSW,250,0.0,0.0,84,0.00,,,0.00,Wunderground v.1.15,2013-04-14 06:35:00,
2013-04-14 02:40:00,47.2,42.3,30.01,WSW,250,0.0,0.0,83,0.00,,,0.00,Wunderground v.1.15,2013-04-14 06:40:00,
2013-04-14 02:50:00,46.9,42.6,30.01,WSW,250,0.0,0.0,85,0.00,,,0.00,Wunderground v.1.15,2013-04-14 06:50:00,
2013-04-14 02:55:00,46.9,43.2,30.01,WSW,250,0.0,0.0,87,0.00,,,0.00,Wunderground v.1.15,2013-04-14 06:55:00,
2013-04-14 03:00:00,46.8,43.4,30.01,WSW,250,0.0,0.0,88,0.00,,,0.00,Wunderground v.1.15,2013-04-14 07:00:00,
2013-04-14 03:10:00,46.4,42.4,30.01,WSW,250,0.0,0.0,86,0.00,,,0.00,Wunderground v.1.15,2013-04-14 07:10:00,
2013-04-14 03:15:00,46.3,42.3,30.01,WSW,250,0.0,0.0,86,0.00,,,0.00,Wunderground v.1.15,2013-04-14 07:15:00,
2013-04-14 03:20:00,46.1,42.1,30.01,WSW,250,0.0,0.0,86,0.00,,,0.00,Wunderground v.1.15,2013-04-14 07:20:00,
2013-04-14 03:30:00,45.9,42.5,30.01,WSW,250,0.0,0.0,88,0.00,,,0.00,Wunderground v.1.15,2013-04-14 07:30:00,
2013-04-14 03:35:00,45.8,42.4,30.01,WSW,250,0.0,0.0,88,0.00,,,0.00,Wunderground v.1.15,2013-04-14 07:35:00,
2013-04-14 03:45:00,45.5,42.2,30.02,WSW,250,0.0,0.0,88,0.00,,,0.00,Wunderground v.1.15,2013-04-14 07:45:00,
2013-04-14 03:50:00,45.4,42.1,30.02,WSW,250,0.0,0.0,88,0.00,,,0.00,Wunderground v.1.15,2013-04-14 07:50:00,
2013-04-14 03:55:00,45.3,42.0,30.02,WSW,250,0.0,0.0,88,0.00,,,0.00,Wunderground v.1.15,2013-04-14 07:55:00,
2013-04-14 04:05:00,45.2,41.9,30.02,WSW,250,0.0,0.0,88,0.00,,,0.00,Wunderground v.1.15,2013-04-14 08:05:00,
2013-04-14 04:10:00,45.2,41.9,30.02,WSW,250,0.0,0.0,88,0.00,,,0.00,Wunderground v.1.15,2013-04-14 08:10:00,
2013-04-14 04:15:00,45.1,41.8,30.02,WSW,250,0.0,0.0,88,0.00,,,0.00,Wunderground v.1.15,2013-04-14 08:15:00,
2013-04-14 04:25:00,44.9,41.6,30.02,WSW,250,0.0,0.0,88,0.00,,,0.00,Wunderground v.1.15,2013-04-14 08:25:00,
2013-04-14 04:30:00,44.7,41.4,30.02,WSW,250,0.0,0.0,88,0.00,,,0.00,Wunderground v.1.15,2013-04-14 08:30:00,
2013-04-14 04:35:00,44.6,41.3,30.02,WSW,250,0.0,0.0,88,0.00,,,0.00,Wunderground v.1.15,2013-04-14 08:35:00,
2013-04-14 04:45:00,44.5,40.6,30.03,WSW,250,0.0,0.0,86,0.00,,,0.00,Wunderground v.1.15,2013-04-14 08:45:00,
2013-04-14 04:50:00,44.4,40.8,30.03,WSW,250,0.0,0.0,87,0.00,,,0.00,Wunderground v.1.15,2013-04-14 08:50:00,
2013-04-14 05:00:00,44.3,41.0,30.03,WSW,250,0.0,0.0,88,0.00,,,0.00,Wunderground v.1.15,2013-04-14 09:00:00,
2013-04-14 05:05:00,44.4,41.1,30.03,WSW,250,0.0,0.0,88,0.00,,,0.00,Wunderground v.1.15,2013-04-14 09:05:00,
2013-04-14 05:10:00,44.3,41.0,30.03,WSW,250,0.0,0.0,88,0.00,,,0.00,Wunderground v.1.15,2013-04-14 09:10:00,
2013-04-14 05:15:00,44.3,41.3,30.03,WSW,250,0.0,0.0,89,0.00,,,0.00,Wunderground v.1.15,2013-04-14 09:15:00,
2013-04-14 05:25:00,44.2,41.2,30.03,WSW,250,0.0,0.0,89,0.00,,,0.00,Wunderground v.1.15,2013-04-14 09:25:00,
2013-04-14 05:30:00,44.2,41.5,30.03,WSW,250,0.0,0.0,90,0.00,,,0.00,Wunderground v.1.15,2013-04-14 09:30:00,
2013-04-14 05:35:00,44.1,41.4,30.03,WSW,250,0.0,0.0,90,0.00,,,0.00,Wunderground v.1.15,2013-04-14 09:35:00,
2013-04-14 05:45:00,44.0,41.3,30.03,WSW,250,0.0,0.0,90,0.00,,,0.00,Wunderground v.1.15,2013-04-14 09:45:00,
2013-04-14 05:50:00,44.0,41.0,30.03,WSW,250,0.0,0.0,89,0.00,,,0.00,Wunderground v.1.15,2013-04-14 09:50:00,
2013-04-14 05:55:00,43.9,41.2,30.03,WSW,250,0.0,0.0,90,0.00,,,0.00,Wunderground v.1.15,2013-04-14 09:55:00,
2013-04-14 06:05:00,43.8,40.8,30.03,WSW,250,0.0,0.0,89,0.00,,,0.00,Wunderground v.1.15,2013-04-14 10:05:00,
2013-04-14 06:10:00,43.8,40.8,30.03,WSW,250,0.0,0.0,89,0.00,,,0.00,Wunderground v.1.15,2013-04-14 10:10:00,
2013-04-14 06:15:00,43.7,40.7,30.03,WSW,250,0.0,0.0,89,0.00,,,0.00,Wunderground v.1.15,2013-04-14 10:15:00,
2013-04-14 06:20:00,43.7,41.0,30.03,WSW,250,0.0,0.0,90,0.00,,,0.00,Wunderground v.1.15,2013-04-14 10:20:00,
2013-04-14 06:30:00,43.6,41.1,30.03,WSW,250,0.0,0.0,91,0.00,,,0.00,Wunderground v.1.15,2013-04-14 10:30:00,
2013-04-14 06:35:00,43.6,41.1,30.04,WSW,250,0.0,0.0,91,0.00,,,0.00,Wunderground v.1.15,2013-04-14 10:35:00,
2013-04-14 06:40:00,43.6,41.1,30.04,WSW,250,0.0,0.0,91,0.00,,,0.00,Wunderground v.1.15,2013-04-14 10:40:00,
2013-04-14 06:50:00,43.5,41.3,30.04,WSW,250,0.0,0.0,92,0.00,,,0.00,Wunderground v.1.15,2013-04-14 10:50:00,
2013-04-14 06:55:00,43.5,41.3,30.04,WSW,250,0.0,0.0,92,0.00,,,0.00,Wunderground v.1.15,2013-04-14 10:55:00,
2013-04-14 07:00:00,43.5,41.3,30.05,WSW,250,0.0,0.0,92,0.00,,,0.00,Wunderground v.1.15,2013-04-14 11:00:00,
2013-04-14 07:10:00,43.5,41.0,30.06,WSW,250,0.0,0.0,91,0.00,,,0.00,Wunderground v.1.15,2013-04-14 11:10:00,
2013-04-14 07:15:00,43.5,41.0,30.06,WSW,250,0.0,0.0,91,0.00,,,0.00,Wunderground v.1.15,2013-04-14 11:15:00,
2013-04-14 07:20:00,43.5,41.0,30.06,WSW,250,0.0,0.0,91,0.00,,,0.00,Wunderground v.1.15,2013-04-14 11:20:00,
2013-04-14 07:30:00,43.7,41.5,30.06,WSW,250,0.0,0.0,92,0.00,,,0.00,Wunderground v.1.15,2013-04-14 11:30:00,
2013-04-14 07:35:00,43.8,41.6,30.06,WSW,250,0.0,0.0,92,0.00,,,0.00,Wunderground v.1.15,2013-04-14 11:35:00,
2013-04-14 07:40:00,44.0,41.8,30.06,WSW,250,0.0,0.0,92,0.00,,,0.00,Wunderground v.1.15,2013-04-14 11:40:00,
2013-04-14 07:45:00,44.1,41.9,30.07,WSW,250,0.0,0.0,92,0.00,,,0.00,Wunderground v.1.15,2013-04-14 11:45:00,
2013-04-14 07:55:00,44.5,42.3,30.07,WSW,250,0.0,0.0,92,0.00,,,0.00,Wunderground v.1.15,2013-04-14 11:55:00,
2013-04-14 08:00:00,44.7,42.2,30.07,WSW,250,0.0,0.0,91,0.00,,,0.00,Wunderground v.1.15,2013-04-14 12:00:00,
2013-04-14 08:05:00,45.1,42.6,30.07,WSW,250,0.0,0.0,91,0.00,,,0.00,Wunderground v.1.15,2013-04-14 12:05:00,
2013-04-14 08:10:00,45.6,43.1,30.07,WSW,250,0.0,0.0,91,0.00,,,0.00,Wunderground v.1.15,2013-04-14 12:10:00,
2013-04-14 08:20:00,46.8,44.3,30.07,WSW,250,0.0,0.0,91,0.00,,,0.00,Wunderground v.1.15,2013-04-14 12:20:00,
2013-04-14 08:25:00,47.7,45.5,30.07,WSW,250,0.0,0.0,92,0.00,,,0.00,Wunderground v.1.15,2013-04-14 12:25:00,
2013-04-14 08:35:00,49.1,46.3,30.07,WSW,250,0.0,0.0,90,0.00,,,0.00,Wunderground v.1.15,2013-04-14 12:35:00,
2013-04-14 08:40:00,49.8,47.0,30.08,WSW,250,0.0,0.0,90,0.00,,,0.00,Wunderground v.1.15,2013-04-14 12:40:00,
2013-04-14 08:45:00,50.4,47.0,30.08,WSW,250,0.0,0.0,88,0.00,,,0.00,Wunderground v.1.15,2013-04-14 12:45:00,
2013-04-14 08:50:00,51.5,46.8,30.08,WSW,250,0.0,0.0,84,0.00,,,0.00,Wunderground v.1.15,2013-04-14 12:50:00,
2013-04-14 09:00:00,54.0,48.0,30.07,WSW,250,0.0,0.0,80,0.00,,,0.00,Wunderground v.1.15,2013-04-14 13:00:00,
2013-04-14 09:05:00,55.5,49.1,30.07,WSW,250,0.0,0.0,79,0.00,,,0.00,Wunderground v.1.15,2013-04-14 13:05:00,
2013-04-14 09:10:00,57.1,46.2,30.07,WSW,250,0.0,0.0,67,0.00,,,0.00,Wunderground v.1.15,2013-04-14 13:10:00,
2013-04-14 09:20:00,60.9,44.1,30.07,SSW,194,0.0,0.0,54,0.00,,,0.00,Wunderground v.1.15,2013-04-14 13:20:00,
2013-04-14 09:25:00,62.5,46.1,30.07,SSW,194,0.0,0.0,55,0.00,,,0.00,Wunderground v.1.15,2013-04-14 13:25:00,
2013-04-14 09:30:00,64.3,43.1,30.08,ESE,115,0.0,1.0,46,0.00,,,0.00,Wunderground v.1.15,2013-04-14 13:30:00,
2013-04-14 09:40:00,67.2,43.9,30.07,ESE,115,0.0,0.0,43,0.00,,,0.00,Wunderground v.1.15,2013-04-14 13:40:00,
2013-04-14 09:45:00,68.2,43.6,30.08,ESE,115,0.0,0.0,41,0.00,,,0.00,Wunderground v.1.15,2013-04-14 13:45:00,
2013-04-14 09:50:00,68.9,42.2,30.08,SSE,163,0.0,1.0,38,0.00,,,0.00,Wunderground v.1.15,2013-04-14 13:50:00,
2013-04-14 10:00:00,69.7,42.9,30.08,NNW,330,1.0,1.0,38,0.00,,,0.00,Wunderground v.1.15,2013-04-14 14:00:00,
2013-04-14 10:05:00,70.2,42.0,30.08,North,5,0.0,1.0,36,0.00,,,0.00,Wunderground v.1.15,2013-04-14 14:05:00,
2013-04-14 10:10:00,70.8,43.9,30.08,NNE,16,0.0,0.0,38,0.00,,,0.00,Wunderground v.1.15,2013-04-14 14:10:00,
2013-04-14 10:15:00,71.3,44.4,30.08,NNE,16,0.0,0.0,38,0.00,,,0.00,Wunderground v.1.15,2013-04-14 14:15:00,
2013-04-14 10:25:00,72.2,39.0,30.08,NNW,340,0.0,1.0,30,0.00,,,0.00,Wunderground v.1.15,2013-04-14 14:25:00,
2013-04-14 10:30:00,72.1,39.8,30.08,NW,321,0.0,0.0,31,0.00,,,0.00,Wunderground v.1.15,2013-04-14 14:30:00,
2013-04-14 10:40:00,72.7,40.3,30.07,NNW,329,0.0,0.0,31,0.00,,,0.00,Wunderground v.1.15,2013-04-14 14:40:00,
2013-04-14 10:45:00,73.1,42.3,30.07,ESE,119,0.0,0.0,33,0.00,,,0.00,Wunderground v.1.15,2013-04-14 14:45:00,
2013-04-14 10:50:00,73.6,43.5,30.08,ESE,119,0.0,0.0,34,0.00,,,0.00,Wunderground v.1.15,2013-04-14 14:50:00,
2013-04-14 10:55:00,74.0,43.1,30.08,ESE,119,0.0,1.0,33,0.00,,,0.00,Wunderground v.1.15,2013-04-14 14:55:00,
2013-04-14 11:05:00,74.4,40.1,30.08,East,96,1.0,1.0,29,0.00,,,0.00,Wunderground v.1.15,2013-04-14 15:05:00,
2013-04-14 11:10:00,74.5,41.0,30.08,WSW,243,1.0,2.0,30,0.00,,,0.00,Wunderground v.1.15,2013-04-14 15:10:00,
2013-04-14 11:15:00,74.4,40.1,30.07,SSE,167,1.0,2.0,29,0.00,,,0.00,Wunderground v.1.15,2013-04-14 15:15:00,
2013-04-14 11:25:00,74.3,41.7,30.07,South,186,1.0,2.0,31,0.00,,,0.00,Wunderground v.1.15,2013-04-14 15:25:00,
2013-04-14 11:30:00,74.5,40.1,30.07,SSW,205,1.0,1.0,29,0.00,,,0.00,Wunderground v.1.15,2013-04-14 15:30:00,
2013-04-14 11:35:00,74.7,40.3,30.07,SSE,163,0.0,2.0,29,0.00,,,0.00,Wunderground v.1.15,2013-04-14 15:35:00,
2013-04-14 11:45:00,75.0,38.7,30.06,ENE,76,1.0,1.0,27,0.00,,,0.00,Wunderground v.1.15,2013-04-14 15:45:00,
2013-04-14 11:50:00,75.2,40.7,30.06,ESE,103,1.0,1.0,29,0.00,,,0.00,Wunderground v.1.15,2013-04-14 15:50:00,
2013-04-14 11:55:00,75.4,40.9,30.06,ENE,71,1.0,2.0,29,0.00,,,0.00,Wunderground v.1.15,2013-04-14 15:55:00,
2013-04-14 12:00:00,75.4,41.8,30.06,ENE,72,1.0,1.0,30,0.00,,,0.00,Wunderground v.1.15,2013-04-14 16:00:00,
2013-04-14 12:10:00,75.6,42.0,30.06,SW,234,1.0,1.0,30,0.00,,,0.00,Wunderground v.1.15,2013-04-14 16:10:00,
2013-04-14 12:15:00,75.6,43.7,30.06,SSW,202,1.0,1.0,32,0.00,,,0.00,Wunderground v.1.15,2013-04-14 16:15:00,
2013-04-14 12:25:00,76.2,39.8,30.06,SSE,157,1.0,2.0,27,0.00,,,0.00,Wunderground v.1.15,2013-04-14 16:25:00,
2013-04-14 12:30:00,76.4,39.9,30.06,ESE,103,1.0,1.0,27,0.00,,,0.00,Wunderground v.1.15,2013-04-14 16:30:00,
2013-04-14 12:35:00,76.4,40.9,30.06,South,184,1.0,1.0,28,0.00,,,0.00,Wunderground v.1.15,2013-04-14 16:35:00,
2013-04-14 12:40:00,76.5,40.0,30.06,South,188,1.0,1.0,27,0.00,,,0.00,Wunderground v.1.15,2013-04-14 16:40:00,
2013-04-14 12:50:00,76.7,40.2,30.06,SSE,150,1.0,1.0,27,0.00,,,0.00,Wunderground v.1.15,2013-04-14 16:50:00,
2013-04-14 12:55:00,76.6,40.1,30.06,ENE,71,1.0,1.0,27,0.00,,,0.00,Wunderground v.1.15,2013-04-14 16:55:00,
2013-04-14 13:00:00,76.6,39.1,30.06,East,83,1.0,1.0,26,0.00,,,0.00,Wunderground v.1.15,2013-04-14 17:00:00,
2013-04-14 13:10:00,76.7,39.2,30.06,ENE,59,1.0,1.0,26,0.00,,,0.00,Wunderground v.1.15,2013-04-14 17:10:00,
2013-04-14 13:15:00,76.8,43.9,30.06,SSW,212,1.0,1.0,31,0.00,,,0.00,Wunderground v.1.15,2013-04-14 17:15:00,
2013-04-14 13:20:00,77.2,36.5,30.06,ESE,105,1.0,2.0,23,0.00,,,0.00,Wunderground v.1.15,2013-04-14 17:20:00,
2013-04-14 13:30:00,77.5,42.7,30.05,SSW,198,1.0,4.0,29,0.00,,,0.00,Wunderground v.1.15,2013-04-14 17:30:00,
2013-04-14 13:35:00,77.6,41.9,30.05,SSE,159,0.0,4.0,28,0.00,,,0.00,Wunderground v.1.15,2013-04-14 17:35:00,
2013-04-14 13:40:00,77.5,41.8,30.05,SSE,161,1.0,1.0,28,0.00,,,0.00,Wunderground v.1.15,2013-04-14 17:40:00,
2013-04-14 13:45:00,77.6,42.8,30.04,South,175,0.0,1.0,29,0.00,,,0.00,Wunderground v.1.15,2013-04-14 17:45:00,
2013-04-14 13:55:00,77.9,36.0,30.04,SSE,155,1.0,1.0,22,0.00,,,0.00,Wunderground v.1.15,2013-04-14 17:55:00,
2013-04-14 14:00:00,77.8,38.1,30.03,West,281,1.0,4.0,24,0.00,,,0.00,Wunderground v.1.15,2013-04-14 18:00:00,
2013-04-14 14:05:00,77.6,41.0,30.03,SSE,165,1.0,4.0,27,0.00,,,0.00,Wunderground v.1.15,2013-04-14 18:05:00,
2013-04-14 14:15:00,78.2,38.4,30.03,NNE,22,1.0,2.0,24,0.00,,,0.00,Wunderground v.1.15,2013-04-14 18:15:00,
2013-04-14 14:20:00,78.4,38.6,30.02,SE,140,1.0,1.0,24,0.00,,,0.00,Wunderground v.1.15,2013-04-14 18:20:00,
2013-04-14 14:25:00,78.5,40.7,30.02,SE,138,1.0,1.0,26,0.00,,,0.00,Wunderground v.1.15,2013-04-14 18:25:00,
2013-04-14 14:30:00,78.8,37.9,30.02,SW,235,1.0,2.0,23,0.00,,,0.00,Wunderground v.1.15,2013-04-14 18:30:00,
2013-04-14 14:40:00,78.8,38.9,30.02,WSW,246,1.0,1.0,24,0.00,,,0.00,Wunderground v.1.15,2013-04-14 18:40:00,
2013-04-14 14:45:00,78.9,37.9,30.02,East,82,1.0,1.0,23,0.00,,,0.00,Wunderground v.1.15,2013-04-14 18:45:00,
2013-04-14 14:55:00,79.1,41.3,30.02,SSE,152,1.0,3.0,26,0.00,,,0.00,Wunderground v.1.15,2013-04-14 18:55:00,
2013-04-14 15:00:00,79.1,41.3,30.02,South,186,1.0,1.0,26,0.00,,,0.00,Wunderground v.1.15,2013-04-14 19:00:00,
2013-04-14 15:05:00,79.3,38.3,30.01,SW,234,1.0,5.0,23,0.00,,,0.00,Wunderground v.1.15,2013-04-14 19:05:00,
2013-04-14 15:10:00,79.1,42.2,30.01,SSE,157,1.0,1.0,27,0.00,,,0.00,Wunderground v.1.15,2013-04-14 19:10:00,
2013-04-14 15:20:00,79.0,45.8,30.00,WSW,242,1.0,1.0,31,0.00,,,0.00,Wunderground v.1.15,2013-04-14 19:20:00,
2013-04-14 15:25:00,79.1,40.2,30.00,SE,140,1.0,1.0,25,0.00,,,0.00,Wunderground v.1.15,2013-04-14 19:25:00,
2013-04-14 15:30:00,78.7,36.6,30.00,SSE,148,1.0,1.0,22,0.00,,,0.00,Wunderground v.1.15,2013-04-14 19:30:00,
2013-04-14 15:35:00,78.7,40.9,30.00,SSE,157,1.0,1.0,26,0.00,,,0.00,Wunderground v.1.15,2013-04-14 19:35:00,
2013-04-14 15:45:00,78.3,37.4,29.99,SE,146,0.0,1.0,23,0.00,,,0.00,Wunderground v.1.15,2013-04-14 19:45:00,
2013-04-14 15:50:00,78.3,39.6,29.99,South,186,1.0,1.0,25,0.00,,,0.00,Wunderground v.1.15,2013-04-14 19:50:00,
2013-04-14 15:55:00,78.2,41.5,29.99,SSW,207,1.0,1.0,27,0.00,,,0.00,Wunderground v.1.15,2013-04-14 19:55:00,
2013-04-14 16:05:00,78.4,38.6,29.99,SSW,202,0.0,0.0,24,0.00,,,0.00,Wunderground v.1.15,2013-04-14 20:05:00,
2013-04-14 16:10:00,78.4,41.6,29.99,SSE,150,0.0,0.0,27,0.00,,,0.00,Wunderground v.1.15,2013-04-14 20:10:00,
2013-04-14 16:15:00,78.3,41.6,29.99,SSE,150,0.0,0.0,27,0.00,,,0.00,Wunderground v.1.15,2013-04-14 20:15:00,
2013-04-14 16:25:00,78.1,40.4,29.99,SSE,148,1.0,1.0,26,0.00,,,0.00,Wunderground v.1.15,2013-04-14 20:25:00,
2013-04-14 16:30:00,77.7,40.1,29.99,SSE,148,1.0,1.0,26,0.00,,,0.00,Wunderground v.1.15,2013-04-14 20:30:00,
2013-04-14 16:35:00,77.3,40.7,29.99,South,188,0.0,1.0,27,0.00,,,0.00,Wunderground v.1.15,2013-04-14 20:35:00,
2013-04-14 16:45:00,76.6,41.0,30.00,South,169,0.0,1.0,28,0.00,,,0.00,Wunderground v.1.15,2013-04-14 20:45:00,
2013-04-14 16:50:00,76.4,40.9,30.00,South,189,1.0,1.0,28,0.00,,,0.00,Wunderground v.1.15,2013-04-14 20:50:00,
2013-04-14 16:55:00,76.1,38.7,30.00,South,188,0.0,1.0,26,0.00,,,0.00,Wunderground v.1.15,2013-04-14 20:55:00,
2013-04-14 17:00:00,75.9,40.4,30.00,SSE,158,0.0,0.0,28,0.00,,,0.00,Wunderground v.1.15,2013-04-14 21:00:00,
2013-04-14 17:10:00,75.6,40.2,30.00,East,97,0.0,1.0,28,0.00,,,0.00,Wunderground v.1.15,2013-04-14 21:10:00,
2013-04-14 17:15:00,75.5,41.0,30.00,West,269,0.0,1.0,29,0.00,,,0.00,Wunderground v.1.15,2013-04-14 21:15:00,
2013-04-14 17:25:00,75.2,41.6,30.00,South,173,0.0,0.0,30,0.00,,,0.00,Wunderground v.1.15,2013-04-14 21:25:00,
2013-04-14 17:30:00,75.0,43.1,30.00,South,174,0.0,2.0,32,0.00,,,0.00,Wunderground v.1.15,2013-04-14 21:30:00,
2013-04-14 17:35:00,74.8,42.1,30.01,South,174,0.0,2.0,31,0.00,,,0.00,Wunderground v.1.15,2013-04-14 21:35:00,
2013-04-14 17:40:00,74.8,41.3,30.01,South,174,0.0,0.0,30,0.00,,,0.00,Wunderground v.1.15,2013-04-14 21:40:00,
2013-04-14 17:50:00,74.6,41.1,30.01,SW,234,1.0,1.0,30,0.00,,,0.00,Wunderground v.1.15,2013-04-14 21:50:00,
2013-04-14 17:55:00,74.5,42.7,30.01,SW,234,1.0,1.0,32,0.00,,,0.00,Wunderground v.1.15,2013-04-14 21:55:00,
2013-04-14 18:05:00,74.1,41.5,30.01,West,259,0.0,5.0,31,0.00,,,0.00,Wunderground v.1.15,2013-04-14 22:05:00,
2013-04-14 18:10:00,74.0,43.1,30.01,SW,234,1.0,1.0,33,0.00,,,0.00,Wunderground v.1.15,2013-04-14 22:10:00,
2013-04-14 18:15:00,73.8,41.3,30.01,SSW,198,1.0,1.0,31,0.00,,,0.00,Wunderground v.1.15,2013-04-14 22:15:00,
2013-04-14 18:25:00,73.4,42.5,30.01,SW,220,1.0,1.0,33,0.00,,,0.00,Wunderground v.1.15,2013-04-14 22:25:00,
2013-04-14 18:30:00,73.2,43.1,30.01,SSW,198,1.0,1.0,34,0.00,,,0.00,Wunderground v.1.15,2013-04-14 22:30:00,
2013-04-14 18:35:00,73.0,43.0,30.01,SW,215,1.0,2.0,34,0.00,,,0.00,Wunderground v.1.15,2013-04-14 22:35:00,
2013-04-14 18:45:00,72.5,45.4,30.01,SSW,208,0.0,1.0,38,0.00,,,0.00,Wunderground v.1.15,2013-04-14 22:45:00,
2013-04-14 18:55:00,72.1,45.1,30.01,SSW,209,1.0,1.0,38,0.00,,,0.00,Wunderground v.1.15,2013-04-14 22:55:00,
2013-04-14 19:05:00,71.7,46.1,30.02,SSW,212,1.0,2.0,40,0.00,,,0.00,Wunderground v.1.15,2013-04-14 23:05:00,
2013-04-14 19:10:00,71.6,46.0,30.02,SSW,192,1.0,1.0,40,0.00,,,0.00,Wunderground v.1.15,2013-04-14 23:10:00,
2013-04-14 19:15:00,71.4,46.5,30.02,South,178,1.0,2.0,41,0.00,,,0.00,Wunderground v.1.15,2013-04-14 23:15:00,
2013-04-14 19:20:00,71.2,46.3,30.02,SW,215,1.0,1.0,41,0.00,,,0.00,Wunderground v.1.15,2013-04-14 23:20:00,
2013-04-14 19:30:00,70.8,45.9,30.01,South,184,1.0,1.0,41,0.00,,,0.00,Wunderground v.1.15,2013-04-14 23:30:00,
2013-04-14 19:35:00,70.6,45.1,30.01,SSW,212,1.0,2.0,40,0.00,,,0.00,Wunderground v.1.15,2013-04-14 23:35:00,
2013-04-14 19:45:00,70.1,45.9,30.01,SSW,208,1.0,1.0,42,0.00,,,0.00,Wunderground v.1.15,2013-04-14 23:45:00,
2013-04-14 19:50:00,69.9,46.4,30.01,SSW,199,0.0,0.0,43,0.00,,,0.00,Wunderground v.1.15,2013-04-14 23:50:00,
2013-04-14 19:55:00,69.7,46.2,30.01,South,190,0.0,1.0,43,0.00,,,0.00,Wunderground v.1.15,2013-04-14 23:55:00,
2013-04-14 20:05:00,69.2,45.7,30.00,South,191,0.0,1.0,43,0.00,,,0.00,Wunderground v.1.15,2013-04-15 00:05:00,
2013-04-14 20:10:00,69.1,45.7,30.00,South,191,0.0,0.0,43,0.00,,,0.00,Wunderground v.1.15,2013-04-15 00:10:00,
2013-04-14 20:20:00,68.7,46.5,30.00,SSW,200,0.0,0.0,45,0.00,,,0.00,Wunderground v.1.15,2013-04-15 00:20:00,
2013-04-14 20:25:00,68.5,46.3,30.00,SSW,200,0.0,0.0,45,0.00,,,0.00,Wunderground v.1.15,2013-04-15 00:25:00,
2013-04-14 20:30:00,68.3,46.7,30.00,SSW,200,0.0,0.0,46,0.00,,,0.00,Wunderground v.1.15,2013-04-15 00:30:00,
2013-04-14 20:35:00,68.2,46.0,30.00,SSW,200,0.0,0.0,45,0.00,,,0.00,Wunderground v.1.15,2013-04-15 00:35:00,
2013-04-14 20:45:00,67.8,46.3,29.99,SSW,200,0.0,0.0,46,0.00,,,0.00,Wunderground v.1.15,2013-04-15 00:45:00,
2013-04-14 20:50:00,67.6,46.6,29.99,SSW,200,0.0,0.0,47,0.00,,,0.00,Wunderground v.1.15,2013-04-15 00:50:00,
2013-04-14 21:00:00,67.2,47.9,29.99,SSW,200,0.0,0.0,50,0.00,,,0.00,Wunderground v.1.15,2013-04-15 01:00:00,
2013-04-14 21:05:00,67.0,47.2,29.99,SSW,200,0.0,0.0,49,0.00,,,0.00,Wunderground v.1.15,2013-04-15 01:05:00,
2013-04-14 21:10:00,66.8,47.6,29.99,SSW,200,0.0,0.0,50,0.00,,,0.00,Wunderground v.1.15,2013-04-15 01:10:00,
2013-04-14 21:15:00,66.7,48.5,30.00,SSW,200,0.0,0.0,52,0.00,,,0.00,Wunderground v.1.15,2013-04-15 01:15:00,
2013-04-14 21:25:00,66.2,48.0,30.00,SSW,194,0.0,2.0,52,0.00,,,0.00,Wunderground v.1.15,2013-04-15 01:25:00,
2013-04-14 21:30:00,66.2,48.0,30.00,SSW,205,0.0,0.0,52,0.00,,,0.00,Wunderground v.1.15,2013-04-15 01:30:00,
2013-04-14 21:35:00,66.4,48.7,30.00,SSW,205,0.0,0.0,53,0.00,,,0.00,Wunderground v.1.15,2013-04-15 01:35:00,
2013-04-14 21:45:00,66.4,49.2,30.00,South,171,0.0,0.0,54,0.00,,,0.00,Wunderground v.1.15,2013-04-15 01:45:00,
2013-04-14 21:50:00,66.3,49.2,30.00,SW,222,0.0,1.0,54,0.00,,,0.00,Wunderground v.1.15,2013-04-15 01:50:00,
2013-04-14 21:55:00,66.3,49.2,30.00,SSW,196,0.0,1.0,54,0.00,,,0.00,Wunderground v.1.15,2013-04-15 01:55:00,
2013-04-14 22:00:00,66.3,48.7,30.00,SSW,200,1.0,1.0,53,0.00,,,0.00,Wunderground v.1.15,2013-04-15 02:00:00,
2013-04-14 22:10:00,66.3,49.6,30.00,South,189,0.0,0.0,55,0.00,,,0.00,Wunderground v.1.15,2013-04-15 02:10:00,
2013-04-14 22:15:00,66.1,49.9,30.00,SW,217,0.0,0.0,56,0.00,,,0.00,Wunderground v.1.15,2013-04-15 02:15:00,
2013-04-14 22:25:00,66.0,49.4,30.00,South,183,0.0,1.0,55,0.00,,,0.00,Wunderground v.1.15,2013-04-15 02:25:00,
2013-04-14 22:30:00,65.9,49.8,30.00,SSE,163,0.0,0.0,56,0.00,,,0.00,Wunderground v.1.15,2013-04-15 02:30:00,
2013-04-14 22:35:00,65.9,49.8,30.00,South,178,0.0,0.0,56,0.00,,,0.00,Wunderground v.1.15,2013-04-15 02:35:00,
2013-04-14 22:40:00,65.9,50.2,30.00,SSW,201,1.0,1.0,57,0.00,,,0.00,Wunderground v.1.15,2013-04-15 02:40:00,
2013-04-14 22:50:00,65.7,51.0,30.00,SSW,206,0.0,0.0,59,0.00,,,0.00,Wunderground v.1.15,2013-04-15 02:50:00,
2013-04-14 22:55:00,65.5,51.7,30.01,SW,228,0.0,0.0,61,0.00,,,0.00,Wunderground v.1.15,2013-04-15 02:55:00,
2013-04-14 23:00:00,65.2,51.4,30.01,SW,224,0.0,1.0,61,0.00,,,0.00,Wunderground v.1.15,2013-04-15 03:00:00,
2013-04-14 23:10:00,64.7,51.8,30.01,South,188,0.0,0.0,63,0.00,,,0.00,Wunderground v.1.15,2013-04-15 03:10:00,
2013-04-14 23:15:00,64.5,51.6,30.01,South,188,0.0,0.0,63,0.00,,,0.00,Wunderground v.1.15,2013-04-15 03:15:00,
2013-04-14 23:20:00,64.3,52.3,30.01,South,188,0.0,0.0,65,0.00,,,0.00,Wunderground v.1.15,2013-04-15 03:20:00,
2013-04-14 23:30:00,63.8,53.4,30.01,South,188,0.0,0.0,69,0.00,,,0.00,Wunderground v.1.15,2013-04-15 03:30:00,
2013-04-14 23:35:00,63.3,54.9,30.01,South,188,0.0,0.0,74,0.00,,,0.00,Wunderground v.1.15,2013-04-15 03:35:00,
2013-04-14 23:40:00,62.7,55.0,30.01,South,188,0.0,0.0,76,0.00,,,0.00,Wunderground v.1.15,2013-04-15 03:40:00,
2013-04-14 23:45:00,62.0,54.7,30.01,South,188,0.0,0.0,77,0.00,,,0.00,Wunderground v.1.15,2013-04-15 03:45:00,
2013-04-14 23:55:00,60.8,54.6,30.00,South,188,0.0,0.0,80,0.00,,,0.00,Wunderground v.1.15,2013-04-15 03:55:00,